Location: East Horndon
(51.5667°N, 0.3500°E)
Time: 11:48:40
(UTC+00:00)

USA-17 - Pass Details

Date: 08 November 2025
Orbit: 399 x 1582 km, 63.3° (Epoch: 10 December)

Event Time Altitude Azimuth Distance (km) Brightness Sun altitude
Exits shadow 05:21:24 40° 305° (NW) 612 4.6 -16.2°
Maximum altitude 05:22:24 77° 227° (SW) 422 4.1 -16.0°
Drops below altitude 10° 05:25:40 10° 141° (SE) 1,539 7.8 -15.5°
Sets 05:27:52 0° 140° (SE) 2,497 9.0 -15.2°
